Regional Weather Roundup
Issued by NWS

Home | Current Version | Previous Version | Graphics & Text | Print | Product List | Glossary On
Versions: 1 2 3 4 5 6 7 8 9 10 11 12 13 14 15 16 17 18 19 20 21 22 23 24 25 26 27 28 29 30 31 32 33 34 35 36 37 38 39 40 41 42 43 44 45 46 47 48 49 50
000
ASUS43 KFSD 041710
RWRSD

WEATHER ROUNDUP FOR SOUTH DAKOTA
NATIONAL WEATHER SERVICE SIOUX FALLS SD
1100 AM CST WED MAR 04 2015

NOTE: "FAIR" INDICATES FEW OR NO CLOUDS BELOW 12,000 FEET WITH NO
SIGNIFICANT WEATHER AND/OR OBSTRUCTIONS TO VISIBILITY.


SDZ001>005-009-010-012>017-041800-
NORTHWEST AND NORTH CENTRAL SOUTH DAKOTA

CITY           SKY/WX    TMP DP  RH WIND       PRES   REMARKS
BUFFALO          N/A      6  -6  57 NW20      30.15R WCI -14
FAITH            N/A      6  -8  52 NW21G30   30.25R WCI -14
MOBRIDGE       CLOUDY     6 -11  45 NW20G28   30.28R WCI -14
$$

SDZ012>016-024>037-041>051-057-063-072>074-041800-
SOUTHWEST AND SOUTH CENTRAL SOUTH DAKOTA

CITY           SKY/WX    TMP DP  RH WIND       PRES   REMARKS
RAPID CTY ARPT SUNNY     13   3  64 N22       30.21R WCI  -6
PIERRE         SUNNY      8  -4  58 NW18      30.32R WCI -11
CUSTER         SUNNY      8 -15  34 W16G25    29.99S WCI -10
ELLSWORTH AFB  SUNNY     12   1  59 N20G29    30.20R WCI  -6
PHILIP         PTSUNNY   12   0  58 NW14      30.31R WCI  -3
PINE RIDGE     SUNNY      8  -2  63 SW6       30.23S WCI  -2
SPEARFISH      FAIR       7  -2  66 NW21G28   30.17R WCI -13
WINNER         FAIR      12  -2  53 NW15      30.30R WCI  -4
$$

SDZ004>011-016>023-039-040-041800-
NORTHEAST SOUTH DAKOTA

CITY           SKY/WX    TMP DP  RH WIND       PRES   REMARKS
ABERDEEN       MOSUNNY    2 -10  57 NW22G31   30.32R WCI -20
WATERTOWN      CLOUDY     3  -8  60 NW20      30.23R WCI -18
SISSETON         N/A      3  -7  63 N23       30.27  WCI -19
$$

SDZ017-020-022-023-036>040-048>070-041800-
SOUTHEAST SOUTH DAKOTA

CITY           SKY/WX    TMP DP  RH WIND       PRES   REMARKS
SIOUX FALLS    MOSUNNY   12   1  61 NW23G30   30.26R WCI  -7
HURON          SUNNY      7  -6  55 N22G29    30.33R WCI -14
CHAMBERLAIN    SUNNY     10  -3  54 NW21      30.31S WCI  -9
MITCHELL       SUNNY     11  -3  53 N21G32    30.34R WCI  -8
YANKTON        SUNNY     18  -4  38 NW24G31   30.32R WCI   0
$$

ABBREVIATIONS USED IN REMARKS
   TC - TEMPERATURE IN CELSIUS
  WCI - WIND CHILL INDEX
   HX - HEAT INDEX
  VSB - VISIBILITY



USA.gov is the U.S. government's official web portal to all federal, state and local government web resources and services.